Weather in Verkhnekalinovskiy

Russia / Astrakhan Oblast     46°01′12″N   48°07′03″E
temp.,
°C
wind,
m/s
gust,
m/s
humid.,
%
clouds,
%
prec.,
mm/h
press.,
hPa
HPBL,
m
1 august, sun
sun101:00+24sse226332 0.0 101121
04:00+23se22665 0.0 101113
07:00+26se12526 0.0 1012109
10:00+33se44305 0.0 10121326
13:00+34ssw553193 1.1 10111492
16:00+36sse5523100 1.2 10101908
19:00+33s442553 0.0 1010633
22:00+26s33434 0.0 101132
2 august, mon
mon201:00+25s114628 0.0 101111
04:00+26e223786 0.0 101118
07:00+28ene233359 0.0 101295
10:00+36ese45175 0.0 10121168
13:00+39sse661385 0.0 10112685
16:00+39se7711100 0.0 10102083
19:00+34se572259 0.0 1011503
22:00+27se335290 0.0 101143
3 august, tue
tue301:00+26sse334585 0.0 101125
04:00+26se113913 0.0 101111
07:00+28ene112650 0.0 101234
10:00+37se34124 0.0 10121131
13:00+41se6695 0.0 10103775
16:00+40sse66100 0.0 10103212
19:00+37sse45130 0.0 1010539
22:00+28s44264 0.0 101047
4 august, wed
wed401:00+27s34360 0.0 101040
04:00+25wsw22520 0.0 101011
07:00+28sse11390 0.0 101147
10:00+37s33140 0.0 1011954
13:00+40s66103 0.0 10102622
16:00+40s65105 0.0 10102273
19:00+35s67195 0.0 1010417
22:00+27w12475 0.0 101111
5 august, thu
thu501:00+26w22433 0.0 101112
04:00+26n22340 0.0 101112
07:00+28nne35348 0.0 1011139
10:00+34n9929100 0.0 10121464
13:00+32n9932100 0.0 10131439
16:00+32nnw653445 0.0 10131180
19:00+33nnw55300 0.0 10121857
22:00+27nne45421 0.0 101367